Weather History for Huntington, WV

Change the Weather History Date:

Wednesday, October 24, 2012

  Actual Average Record
Temperature  
Mean Temperature 68 °F 54 °F  
Max Temperature 81 °F 66 °F 84 °F (1991)
Min Temperature 54 °F 43 °F 24 °F (1964)
Degree Days  
Heating Degree Days 0 11  
Month to date heating degree days 213 195  
Since 1 July heating degree days 283 253  
Cooling Degree Days 3 0  
Month to date cooling degree days 19 16  
Year to date cooling degree days 1324 1127  
Growing Degree Days 19 (Base 50)    
Moisture  
Dew Point 51 °F    
Average Humidity 64    
Maximum Humidity 93    
Minimum Humidity 35    
Precipitation  
Precipitation 0.03 in 0.09 in 0.88 in (1923)
Month to date precipitation 0.60 2.12  
Year to date precipitation 32.53 35.15  
Snow  
Snow 0.00 in - - ()
Month to date snowfall 0.0  
Since 1 September snowfall 0.0  
Snow Depth 0.00 in    
Sea Level Pressure  
Sea Level Pressure 30.10 in    
Wind  
Wind Speed 2 mph (SSE)    
Max Wind Speed 9 mph    
Max Gust Speed 15 mph    
Visibility 10 miles    
Events      
T = Trace of Precipitation, MM = Missing Value Source: NWS Daily Summary

Daily Weather History Graph

Daily Weather History Graph

Search for Another Location

Airport:

Trip Planner

Search our weather history database for the weather conditions in past years. The results will help you decide how hot, cold, wet, or windy it might be!

Date:

Astronomy

Oct. 24, 2012 Rise Set
Actual Time 7:48 AM EDT 6:39 PM EDT
Civil Twilight 7:21 AM EDT 7:06 PM EDT
Nautical Twilight 6:50 AM EDT 7:37 PM EDT
Astronomical Twilight 6:19 AM EDT 8:08 PM EDT
Moon 3:51 PM EDT (10/24) 2:46 AM EDT (10/24)
Length of Visible Light 11h 44m
Length of Day
10h 50m
Waxing Gibbous, 76% of the Moon is Illuminated
Oct 24
Waxing Gibbous
Oct 29
Full
Nov 6
Last Quarter
Nov 13
New
Nov 20
First Quarter

Hourly Weather History & Observations

Time (EDT) Temp. Dew Point Humidity Pressure Visibility Wind Dir Wind Speed Gust Speed Precip Events Conditions
12:51 AM 57.9 °F 50.0 °F 75% 30.07 in 10.0 mi Calm Calm - N/A   Mostly Cloudy
1:51 AM 60.1 °F 48.9 °F 67% 30.08 in 10.0 mi WNW 3.5 mph - N/A   Mostly Cloudy
2:51 AM 57.9 °F 51.1 °F 78% 30.09 in 10.0 mi East 3.5 mph - 0.00 in   Overcast
3:51 AM 59.0 °F 51.1 °F 75% 30.08 in 10.0 mi Calm Calm - N/A   Mostly Cloudy
4:51 AM 60.1 °F 51.1 °F 72% 30.11 in 10.0 mi Calm Calm - N/A   Overcast
5:51 AM 57.9 °F 54.0 °F 87% 30.13 in 10.0 mi Calm Calm - 0.01 in   Overcast
6:51 AM 59.0 °F 55.0 °F 87% 30.14 in 10.0 mi Calm Calm - 0.02 in   Overcast
7:51 AM 57.0 °F 54.0 °F 89% 30.16 in 10.0 mi Calm Calm - N/A   Mostly Cloudy
8:51 AM 57.2 °F 55.4 °F 94% 30.18 in 10.0 mi South 3.5 mph - N/A   Overcast
9:51 AM 62.1 °F 55.0 °F 78% 30.17 in 10.0 mi South 4.6 mph - N/A   Overcast
10:51 AM 64.0 °F 55.9 °F 75% 30.17 in 10.0 mi South 4.6 mph - N/A   Scattered Clouds
11:51 AM 66.9 °F 55.9 °F 68% 30.17 in 10.0 mi Calm Calm - 0.00 in   Mostly Cloudy
12:51 PM 73.9 °F 54.0 °F 50% 30.14 in 10.0 mi Calm Calm - N/A   Clear
1:51 PM 75.2 °F 53.6 °F 47% 30.12 in 10.0 mi Variable 3.5 mph - N/A   Clear
2:51 PM 78.1 °F 53.1 °F 42% 30.08 in 10.0 mi South 5.8 mph - N/A   Clear
3:51 PM 79.0 °F 50.0 °F 36% 30.06 in 10.0 mi South 5.8 mph - N/A   Clear
4:51 PM 79.0 °F 48.9 °F 35% 30.06 in 10.0 mi SSE 5.8 mph - N/A   Clear
5:51 PM 77.0 °F 48.0 °F 36% 30.06 in 10.0 mi SSE 3.5 mph - N/A   Clear
6:51 PM 75.0 °F 46.9 °F 37% 30.06 in 10.0 mi SSE 3.5 mph - N/A   Clear
7:51 PM 69.1 °F 48.0 °F 47% 30.06 in 10.0 mi East 3.5 mph - N/A   Clear
8:51 PM 68.0 °F 48.0 °F 49% 30.07 in 10.0 mi Calm Calm - N/A   Clear
9:51 PM 63.0 °F 50.0 °F 63% 30.07 in 10.0 mi Calm Calm - N/A   Clear
10:51 PM 59.0 °F 50.0 °F 72% 30.07 in 10.0 mi Calm Calm - N/A   Clear
11:51 PM 57.9 °F 50.0 °F 75% 30.07 in 10.0 mi East 3.5 mph - N/A   Clear